Home   Weather   Portimão   Past weeks

Flag for Portugal Past Weather in Portimão, Portugal — Yesterday and Last 2 Weeks

Now
82 °F

Clear.


Feels Like: 82 °F
Forecast: 66 / 88 °F
Wind: 12 mph from Northwest

Location: Faro / Aeroporto

Current Time: Aug 16, 2017 at 11:02:12 pm

Latest Report: Aug 16, 2017 at 10:30 pm


Visibility: 10 mi

Pressure: 30.04 "Hg

Humidity: 42%

Dew Point: 57 °F

Location of PortimãoLocation

Past Weather in Portimão — Graph

°F

Portimão Temperature Yesterday

Maximum temperature yesterday: 86 °F (at 9:00 pm)
Minimum temperature yesterday: 72 °F (at 12:00 am)
Average temperature yesterday: 77 °F

High & Low Weather Summary for the Past Weeks

 TemperatureHumidityPressure
High99 °F (Aug 5, 7:30 pm)88% (Aug 13, 12:00 am)30.09 "Hg (Aug 13, 12:00 am)
Low64 °F (Aug 2, 6:30 am)19% (Aug 16, 1:00 pm)29.89 "Hg (Aug 4, 6:30 pm)
Average78 °F51%29.99 "Hg
* Reported Aug 1 9:00 pm — Aug 16 9:30 pm, Portimão. Weather by CustomWeather, © 2017

Note: Actual official high and low records may vary slightly from our data, if they occured in-between our weather recording intervals... More about our weather records

Advertising

Portimão Weather History for the Previous 24 Hours

Scroll right to see more
 ConditionsComfort  
Time TempWeatherWind HumidityBarometerVisibility
9:30 pm
Wed, Aug 16
84 °FClear.12 mph40%30.04 "Hg10 mi
9:00 pm86 °FClear.16 mph38%30.01 "Hg10 mi
8:30 pm88 °FClear.14 mph35%30.01 "Hg10 mi
8:00 pm91 °FSunny.13 mph32%30.01 "Hg10 mi
7:30 pm90 °FPassing clouds.5 mph41%30.01 "HgN/A
7:00 pm82 °FSunny.7 mph55%30.01 "Hg10 mi
6:30 pm82 °FSunny.9 mph55%30.01 "Hg10 mi
6:00 pm82 °FSunny.9 mph55%30.01 "Hg10 mi
5:30 pm82 °FSunny.13 mph58%30.01 "Hg10 mi
5:00 pm82 °FSunny.16 mph55%30.01 "Hg10 mi
4:30 pm82 °FSunny.14 mph55%30.04 "Hg10 mi
4:00 pm82 °FSunny.14 mph55%30.04 "Hg10 mi
3:30 pm82 °FSunny.14 mph55%30.04 "Hg10 mi
3:00 pm82 °FSunny.16 mph51%30.04 "Hg10 mi
2:30 pm81 °FSunny.15 mph54%30.07 "Hg10 mi
2:00 pm81 °FSunny.13 mph58%30.07 "Hg10 mi
1:30 pm93 °FPassing clouds.5 mph21%30.07 "HgN/A
1:00 pm93 °FPassing clouds.7 mph19%30.07 "HgN/A
12:30 pm90 °FSunny.6 mph26%30.07 "Hg10 mi
12:00 pm90 °FSunny.8 mph27%30.09 "Hg10 mi
11:30 am88 °FSunny.7 mph27%30.09 "Hg10 mi
11:00 am86 °FPassing clouds.5 mph29%30.09 "HgN/A
10:30 am84 °FPassing clouds.6 mph31%30.09 "HgN/A
10:00 am81 °FSunny.5 mph37%30.09 "Hg10 mi
9:30 am81 °FSunny.8 mph37%30.09 "Hg10 mi
9:00 am77 °FSunny.9 mph42%30.09 "Hg10 mi
8:30 am75 °FSunny.9 mph44%30.09 "Hg10 mi
8:00 am75 °FSunny.9 mph44%30.09 "Hg10 mi
7:30 am72 °FSunny.9 mph53%30.09 "Hg10 mi
7:00 am72 °FSunny.7 mph50%30.07 "Hg10 mi
6:30 am72 °FPassing clouds.3 mph50%30.07 "HgN/A
6:00 am72 °FPassing clouds.3 mph50%30.07 "HgN/A
5:30 am73 °FPassing clouds.5 mph47%30.07 "HgN/A
5:00 am73 °FClear.5 mph47%30.07 "Hg10 mi
4:30 am72 °FClear.2 mph53%30.07 "Hg10 mi
4:00 am73 °FClear.5 mph53%30.07 "Hg10 mi
3:30 am73 °FClear.2 mph47%30.07 "Hg10 mi
3:00 am75 °FClear.7 mph50%30.07 "Hg10 mi
2:30 am73 °FClear.6 mph53%30.07 "Hg10 mi
2:00 am77 °FClear.6 mph42%30.07 "Hg10 mi
1:30 am79 °FClear.9 mph42%30.07 "Hg10 mi
1:00 am79 °FClear.7 mph42%30.07 "Hg10 mi
12:30 am81 °FClear.9 mph37%30.07 "Hg10 mi
12:00 am75 °FClear.7 mph61%30.07 "Hg10 mi
11:30 pm
Tue, Aug 15
79 °FPassing clouds.7 mph54%30.07 "HgN/A
11:00 pm81 °FClear.9 mph42%30.07 "Hg10 mi
Weather by CustomWeather, © 2017

See weather overviewHow to use our weather pages